Find Starlink 3958

NORAD ID: 52535 Int'l Des: 2022-051 Owner: SPXS Country: US Constellation: starlink operational
LEOCIRCULAR

現在のビュー

3D地球を読み込み中...

About Starlink 3958

Starlink 3958 (NORAD 52535) is a starlink constellation satellite (v1.5) launched May 13, 2022 by SPXS of US. It operates in LEO, CIRCULAR orbit with a mass of 297.00 kg.

Starlink 3958について

説明を読み込み中...

次回通過

Passes for default location (London). Set your location on the main map for personalized predictions.

高度履歴

Loading altitude history...

軌道要素

1 52535U 22051C 26169.32874175 .00001114 00000-0 88048-4 0 9990
2 52535 53.1609 37.2377 0001244 114.1659 245.9463 15.08844657226633
Epoch: Jun 18, 2026 • Age: 15 hours

現在のステータス

高度 539.6 km
速度 7.59 km/s
衛星直下点 5.21°N, 41.12°W
打ち上げ日 May 13, 2022
運用期間 4 years
タイプ internet

技術仕様

分類 Payload
質量 297.00 kg
乾燥質量 275.00 kg
総質量 297.00 kg
長さ 0.20 m
直径 2.80 m
スパン 9.00 m
形状 Box + pan
製造者 SPXS
バスタイプ Starlink
フェーズステータス In Orbit
所有者/国 SPXS/US

Most Searched